Flag for Russia Weather past 2 weeks in Syktyvkar, Russia

Now
55 °F

Scattered clouds.


Feels Like: 55 °F
Forecast: 38 / 55 °F
Wind: 3 mph from Northeast

Location: Syktyvkar Airport

Current Time: Aug 29, 2015 at 3:47:12 PM

Latest Report: Aug 29, 2015 at 3:00 PM


Visibility: N/A

Pressure: 29.86 "Hg

Humidity: 38%

Dew point: 30 °F

Location of SyktyvkarLocation

Historic Weather in Syktyvkar — Graph

°F

Syktyvkar temperature yesterday

Maximum temperature yesterday: 54 °F (at 11:00 AM)
Minimum temperature yesterday: 36 °F (at 10:30 PM)
Average temperature yesterday: 46 °F

Past Weeks' High & Low Weather Summary

 TemperatureHumidityPressure
High72 °F (Aug 21, 12:30 PM)100% (Aug 16, 4:30 AM)30.21 "Hg (Aug 16, 4:30 AM)
Low30 °F (Aug 29, 3:00 AM)28% (Aug 19, 3:00 PM)29.50 "Hg (Aug 14, 6:30 PM)
Average52 °F75%29.96 "Hg
* Reported Aug 14 2:00 PM — Aug 29 2:30 PM, Syktyvkar, Weather by CustomWeather, © 2015

Note: Actual official high and low records may vary slightly from our data, if they occured in-between our weather recording intervals... More about our weather records

Advertising

Syktyvkar weather history for previous 24 hours

 ConditionsComfort  
Time TempWeatherWind HumidityBarometerVisibility
2:30 PM
Sat, Aug 29
55 °FScattered clouds.6 mph41%29.86 "HgN/A
2:00 PM54 °FScattered clouds.3 mph44%29.86 "HgN/A
1:00 PM54 °FPartly sunny.6 mph47%29.89 "HgN/A
12:30 PM54 °FPartly sunny.6 mph51%29.89 "HgN/A
12:00 PM54 °FPartly sunny.3 mph51%29.89 "HgN/A
11:00 AM52 °FPartly sunny.3 mph54%29.92 "HgN/A
10:00 AM54 °FScattered clouds.3 mph54%29.92 "HgN/A
9:00 AM50 °FPassing clouds.1 mph62%29.95 "HgN/A
8:30 AM48 °FSunny.1 mph71%29.95 "Hg10 mi
8:00 AM46 °FPassing clouds.1 mph76%29.95 "Hg6 mi
7:30 AM43 °FPassing clouds.1 mph81%29.95 "Hg6 mi
7:00 AM41 °FClear.1 mph81%29.95 "Hg4 mi
6:30 AM39 °FClear.No wind87%29.95 "Hg5 mi
6:00 AM37 °FClear.No wind93%29.98 "Hg6 mi
5:00 AM30 °FIce fog.1 mph93%29.98 "Hg6 mi
4:30 AM30 °FIce fog.No wind93%29.98 "Hg6 mi
4:00 AM30 °FIce fog.No wind93%29.98 "Hg4 mi
3:30 AM30 °FChilly.No wind93%29.98 "Hg5 mi
3:00 AM30 °FClear.No wind100%29.98 "Hg5 mi
2:30 AM32 °FClear.No wind93%29.98 "Hg4 mi
2:00 AM32 °FIce fog.No wind93%29.98 "Hg5 mi
1:00 AM32 °FIce fog.No wind93%29.98 "Hg2 mi
12:00 AM34 °FFog.No wind93%30.01 "Hg3 mi
11:30 PM
Fri, Aug 28
36 °FFog.No wind93%30.01 "Hg3 mi
11:00 PM36 °FClear.No wind87%30.01 "Hg4 mi
10:30 PM36 °FClear.No wind93%30.01 "Hg4 mi
10:00 PM37 °FFog.1 mph93%30.01 "Hg3 mi
9:30 PM39 °FPassing clouds.No wind81%30.01 "Hg6 mi
9:00 PM43 °FPassing clouds.1 mph81%30.01 "Hg6 mi
8:30 PM45 °FPassing clouds.1 mph71%30.01 "Hg5 mi
8:00 PM45 °FPassing clouds.1 mph76%30.01 "Hg5 mi
7:30 PM46 °FPassing clouds.1 mph66%30.01 "Hg6 mi
7:00 PM46 °FPassing clouds.1 mph66%30.01 "HgN/A
6:30 PM48 °FPassing clouds.1 mph62%30.01 "HgN/A
6:00 PM50 °FPassing clouds.3 mph62%30.01 "HgN/A
5:30 PM52 °FPassing clouds.3 mph58%30.01 "HgN/A
5:00 PM52 °FPassing clouds.3 mph54%30.01 "HgN/A
4:30 PM52 °FPassing clouds.3 mph58%30.01 "HgN/A
4:00 PM52 °FScattered clouds.3 mph54%30.01 "HgN/A
3:30 PM52 °FScattered clouds.3 mph54%30.01 "Hg6 mi
3:00 PM50 °FPartly sunny.3 mph62%30.01 "HgN/A
Weather by CustomWeather, © 2015

See weather overviewHow to use our weather pages